EW7614 Weather Reports


Display with metric or nautical units.
time (UTC)temp
F
wind
direction
speed
MPH
gust
MPH
rain 1hr
in
rain 24hr
in
rain mn
in
humidity
%
barometer
mb
20260902161620 73 261 1.0 4.0 0.00 0.00 0.00 59 1015.8
20260902160106 74 206 0.0 3.0 0.00 0.00 0.00 61 1015.6
20260902154531 75 233 0.0 3.0 0.00 0.00 0.00 59 1015.5
20260902153124 76 173 0.0 2.0 0.00 0.00 0.00 57 1015.6
20260902151558 74 217 0.0 1.0 0.00 0.00 0.00 59 1015.7
20260902150137 76 252 0.0 2.0 0.00 0.00 0.00 53 1015.7
20260902144530 77 282 0.0 4.0 0.00 0.00 0.00 52 1015.8
20260902143125 76 306 3.0 7.0 0.00 0.00 0.00 53 1016.0
20260902141609 76 300 4.0 8.0 0.00 0.00 0.00 52 1015.8
20260902140158 76 325 3.0 13.0 0.00 0.00 0.00 52 1016.0
20260902134555 75 296 4.0 11.0 0.00 0.00 0.00 52 1015.9
20260902133133 75 290 1.0 6.0 0.00 0.00 0.00 54 1015.9
20260902131533 75 340 6.0 12.0 0.00 0.00 0.00 51 1016.0
20260902130114 76 285 3.0 9.0 0.00 0.00 0.00 52 1015.9
20260902124526 75 319 2.0 11.0 0.00 0.00 0.00 55 1016.1
20260902123120 76 331 2.0 10.0 0.00 0.00 0.00 61 1016.1
20260902121525 75 296 4.0 10.0 0.00 0.00 0.00 56 1016.4
20260902120117 76 216 0.0 2.0 0.00 0.00 0.00 58 1016.3
20260902114609 77 202 0.0 1.0 0.00 0.00 0.00 58 1016.5
20260902113118 76 207 0.0 3.0 0.00 0.00 0.00 52 1016.8
20260902111609 76 29 0.0 2.0 0.00 0.00 0.00 55 1016.9
20260902110029 75 47 0.0 4.0 0.00 0.00 0.00 58 1017.1
20260902104614 74 30 0.0 4.0 0.00 0.00 0.00 59 1017.3
20260902103023 74 42 0.0 5.0 0.00 0.00 0.00 61 1017.6
20260902100025 72 24 1.0 6.0 0.00 0.00 0.00 60 1018.1
20260902094619 72 24 0.0 2.0 0.00 0.00 0.00 65 1018.2
20260902093159 70 277 0.0 1.0 0.00 0.00 0.00 67 1018.3
20260902090059 67 254 0.0 1.0 0.00 0.00 0.00 74 1018.7
20260902084630 66 254 0.0 1.0 0.00 0.00 0.00 75 1018.8
20260902083048 64 261 0.0 1.0 0.00 0.00 0.00 75 1018.8
20260902081503 63 248 0.0 1.0 0.00 0.00 0.00 79 1019.0
20260902080046 62 250 0.0 1.0 0.00 0.00 0.00 83 1019.1
20260902074619 61 252 0.0 1.0 0.00 0.00 0.00 83 1019.2
20260902073007 59 259 0.0 0.0 0.00 0.00 0.00 91 1019.4
20260902071529 56 261 0.0 0.0 0.00 0.00 0.00 96 1019.5
20260902070114 54 260 0.0 0.0 0.00 0.00 0.00 97 1019.5
20260902064542 53 260 0.0 0.0 0.00 0.01 0.00 97 1019.6
20260902063122 52 260 0.0 0.0 0.00 0.01 0.00 97 1019.7
20260902061522 51 260 0.0 0.0 0.00 0.01 0.00 97 1019.7
20260902060120 51 260 0.0 0.0 0.00 0.01 0.00 97 1019.9
20260902054535 50 260 0.0 0.0 0.00 0.01 0.00 97 1019.9
20260902053112 49 260 0.0 0.0 0.00 0.01 0.00 97 1019.7
20260902051528 49 260 0.0 0.0 0.00 0.01 0.00 97 1019.6
20260902050120 49 260 0.0 0.0 0.00 0.01 0.00 97 1019.4
20260902044557 49 260 0.0 0.0 0.00 0.01 0.00 97 1019.3
20260902043126 49 260 0.0 0.0 0.00 0.01 0.00 97 1019.3
20260902041545 49 260 0.0 0.0 0.00 0.01 0.00 96 1019.1
20260902040116 50 260 0.0 0.0 0.00 0.01 0.00 96 1019.1
20260902034555 50 260 0.0 0.0 0.00 0.01 0.00 97 1019.2
20260902033132 49 260 0.0 0.0 0.00 0.01 0.00 96 1019.3
20260902031530 50 259 0.0 0.0 0.00 0.01 0.00 96 1019.3
20260902030119 50 259 0.0 0.0 0.00 0.01 0.00 96 1019.3
20260902024542 51 259 0.0 0.0 0.00 0.01 0.00 96 1019.4
20260902023111 51 259 0.0 0.0 0.00 0.01 0.00 95 1019.4
20260902021544 51 259 0.0 0.0 0.00 0.01 0.00 96 1019.4
20260902020111 51 259 0.0 0.0 0.00 0.01 0.00 95 1019.5
20260902014604 52 259 0.0 0.0 0.00 0.01 0.00 95 1019.4
20260902013036 51 259 0.0 0.0 0.00 0.01 0.00 95 1019.4
20260902011618 51 259 0.0 1.0 0.00 0.01 0.00 93 1019.3
20260902010013 52 256 0.0 0.0 0.00 0.01 0.00 94 1019.3
20260902004558 53 261 0.0 0.0 0.00 0.01 0.00 94 1019.3
20260902003004 53 261 0.0 0.0 0.00 0.01 0.00 94 1019.4
20260902001544 53 261 0.0 0.0 0.00 0.01 0.00 92 1019.3
20260902000115 54 257 0.0 0.0 0.00 0.01 0.00 93 1019.2
20260901234535 54 257 0.0 1.0 0.00 0.01 0.00 93 1019.3
20260901233127 54 260 0.0 0.0 0.00 0.01 0.00 93 1019.2
20260901231608 54 245 0.0 2.0 0.00 0.01 0.00 93 1019.2
20260901230036 54 265 0.0 0.0 0.00 0.01 0.00 92 1019.2
20260901224616 55 265 0.0 0.0 0.00 0.01 0.00 91 1019.1
20260901223001 56 265 0.0 0.0 0.00 0.01 0.00 90 1019.0
20260901221538 56 265 0.0 0.0 0.00 0.01 0.00 91 1019.1
20260901220119 57 265 0.0 1.0 0.00 0.01 0.00 88 1019.1
20260901214536 57 270 0.0 0.0 0.00 0.01 0.01 88 1019.0
20260901213138 58 271 0.0 0.0 0.00 0.01 0.01 86 1018.9
20260901211609 58 271 0.0 0.0 0.00 0.01 0.01 88 1019.0
20260901210029 60 244 0.0 0.0 0.00 0.01 0.01 83 1019.0
20260901204620 61 244 0.0 0.0 0.00 0.02 0.01 82 1019.0
20260901203101 62 244 0.0 3.0 0.00 0.02 0.01 80 1018.9
20260901201622 62 159 0.0 0.0 0.00 0.02 0.01 79 1018.9
20260901200038 62 292 0.0 0.0 0.00 0.02 0.01 79 1018.7
20260901194626 63 292 0.0 0.0 0.00 0.04 0.01 80 1018.8
20260901193031 65 229 2.0 11.0 0.00 0.04 0.01 70 1018.7
20260901191623 65 184 0.0 8.0 0.00 0.04 0.01 69 1018.6
20260901190031 65 201 2.0 8.0 0.00 0.04 0.01 69 1018.4
20260901184621 65 156 1.0 8.0 0.00 0.06 0.01 69 1018.3
20260901183024 65 160 2.0 8.0 0.00 0.06 0.01 70 1017.9
20260901181625 65 177 0.0 3.0 0.00 0.06 0.01 71 1017.7
20260901180112 66 166 1.0 7.0 0.00 0.06 0.01 68 1017.6
20260901174554 66 184 2.0 8.0 0.00 0.09 0.01 69 1017.5
20260901173124 66 186 4.0 10.0 0.00 0.09 0.01 69 1017.4
20260901171507 67 218 5.0 10.0 0.00 0.09 0.01 68 1017.3
20260901170042 67 206 0.0 5.0 0.00 0.09 0.01 64 1017.3
20260901164620 68 192 0.0 7.0 0.00 0.14 0.01 67 1017.3
20260901163006 68 200 0.0 1.0 0.00 0.14 0.01 70 1017.1